Back to catalog

STARLINK-34053

AliveCommunicationsVLEO
NORAD 63837·PAYLOAD·🇺🇸 United States

Launched May 7, 2025 from Cape Canaveral Space Force Station

Loading…

Next Passes (next 24 hours)

TLE

FreshSource: CelesTrak SupGP

Epoch: Sep 14, 2026, 21:40 UTC

1 63837C 25093B   26257.90326389  .00011173  00000+0  40472-3 0  2577
2 63837  43.0025  89.4204 0001601 273.6738 273.6103 15.27570908    11

Track STARLINK-34053 in real time with AllMySat

Download on the App Store